DW8188 Weather Reports


Display with metric or nautical units.
time (UTC)temp
F
wind
direction
speed
MPH
gust
MPH
rain 1hr
in
rain 24hr
in
rain mn
in
humidity
%
barometer
mb
20171021224820 51 293 0.0 0.0 0.00 0.00 0.00 90 1013.8
20171021223820 51 293 0.0 0.0 0.00 0.00 0.00 90 1013.8
20171021222820 51 293 0.0 0.0 0.00 0.00 0.00 90 1013.7
20171021215820 51 293 0.0 0.0 0.00 0.00 0.00 90 1014.4
20171021214820 51 293 0.0 0.0 0.00 0.00 0.00 90 1014.4
20171021213820 51 293 0.0 0.0 0.00 0.00 0.00 90 1014.4
20171021212820 51 293 0.0 0.0 0.00 0.00 0.00 90 1014.4
20171021210820 52 0 0.0 0.0 0.00 0.00 0.00 90 1014.4
20171021204820 52 315 0.0 0.0 0.00 0.00 0.00 90 1014.4
20171021202820 53 180 0.0 0.0 0.00 0.00 0.00 90 1014.4
20171021201820 53 180 0.0 0.0 0.00 0.00 0.00 90 1014.5
20171021195820 51 293 0.0 0.0 0.00 0.00 0.00 90 1014.5
20171021193822 53 270 0.0 0.0 0.00 0.00 0.00 90 1014.5
20171021192821 52 248 0.0 0.0 0.00 0.00 0.00 90 1014.5
20171021191821 52 180 0.0 0.0 0.00 0.00 0.00 90 1014.4
20171021185820 51 248 0.0 0.0 0.00 0.00 0.00 89 1014.7
20171021184820 51 248 0.0 0.0 0.00 0.00 0.00 88 1014.7
20171021181820 52 270 0.0 0.0 0.00 0.00 0.00 88 1014.9
20171021180820 52 270 0.0 0.0 0.00 0.00 0.00 87 1014.9
20171021175820 52 293 0.0 0.0 0.00 0.00 0.00 87 1015.0
20171021172820 53 0 0.0 0.0 0.00 0.00 0.00 86 1014.9
20171021171820 53 315 0.0 0.0 0.00 0.00 0.00 85 1015.0
20171021170820 54 293 0.0 0.0 0.00 0.00 0.00 85 1014.9
20171021165820 55 293 0.0 0.0 0.00 0.00 0.00 84 1014.9
20171021163820 55 293 0.0 0.0 0.00 0.00 0.00 83 1014.9
20171021161820 57 293 0.0 0.0 0.00 0.00 0.00 82 1014.8
20171021154820 58 68 0.0 1.0 0.00 0.00 0.00 81 1015.2
20171021152820 58 135 0.0 0.0 0.00 0.00 0.00 81 1015.0
20171021151820 58 113 0.0 1.0 0.00 0.00 0.00 81 1015.0
20171021145820 58 113 0.0 0.0 0.00 0.00 0.00 81 1014.9
20171021144820 58 90 0.0 0.0 0.00 0.00 0.00 81 1015.0
20171021142820 58 135 0.0 4.0 0.00 0.00 0.00 81 1015.2
20171021141820 58 158 0.0 2.0 0.00 0.00 0.00 81 1015.1
20171021135820 58 158 0.0 2.0 0.00 0.00 0.00 81 1015.1
20171021134820 57 135 0.0 0.0 0.00 0.00 0.00 81 1015.3
20171021133820 57 113 2.0 2.0 0.00 0.00 0.00 81 1015.3
20171021132820 58 90 0.0 0.0 0.00 0.00 0.00 81 1015.4
20171021131820 57 113 0.0 5.0 0.00 0.00 0.00 81 1015.3
20171021125820 58 90 0.0 0.0 0.00 0.00 0.00 81 1015.5
20171021122820 57 113 4.0 8.0 0.00 0.00 0.00 82 1015.7
20171021114820 59 113 2.0 10.0 0.00 0.00 0.00 79 1015.9
20171021113820 59 113 5.0 7.0 0.00 0.00 0.00 78 1016.2
20171021112820 59 68 4.0 5.0 0.00 0.00 0.00 79 1016.1
20171021105820 59 113 0.0 4.0 0.00 0.00 0.00 79 1016.6
20171021103820 58 158 0.0 4.0 0.00 0.00 0.00 82 1016.8
20171021094820 55 203 6.0 6.0 0.00 0.00 0.00 88 1017.3
20171021093820 55 203 0.0 0.0 0.00 0.00 0.00 88 1017.1
20171021092820 55 135 2.0 4.0 0.00 0.00 0.00 90 1017.1
20171021090820 54 180 0.0 4.0 0.00 0.00 0.00 93 1017.1
20171021084820 52 158 2.0 4.0 0.00 0.00 0.00 93 1017.3
20171021083820 51 158 0.0 2.0 0.00 0.00 0.00 94 1017.3
20171021082820 51 180 0.0 0.0 0.00 0.00 0.00 94 1017.3
20171021080820 50 203 0.0 0.0 0.00 0.00 0.00 94 1017.5
20171021074820 49 0 0.0 0.0 0.00 0.00 0.00 94 1017.4
20171021072820 49 180 0.0 0.0 0.00 0.00 0.00 94 1017.4
20171021065820 48 293 0.0 0.0 0.00 0.00 0.00 94 1017.1
20171021064820 48 315 0.0 0.0 0.00 0.00 0.00 94 1016.8
20171021063820 48 135 0.0 0.0 0.00 0.00 0.00 94 1016.8
20171021062820 48 225 0.0 0.0 0.00 0.00 0.00 93 1016.7
20171021061820 47 203 0.0 0.0 0.00 0.00 0.00 93 1016.7
20171021060820 48 158 0.0 0.0 0.00 0.00 0.00 93 1016.6
20171021055820 48 248 0.0 0.0 0.00 0.00 0.00 93 1016.5
20171021054820 48 180 0.0 0.0 0.00 0.00 0.00 93 1016.5
20171021053820 48 203 0.0 0.0 0.00 0.00 0.00 94 1016.5
20171021052820 48 180 0.0 0.0 0.00 0.00 0.00 94 1016.3
20171021045820 48 113 0.0 0.0 0.00 0.00 0.00 93 1016.2
20171021041820 48 23 0.0 0.0 0.00 0.00 0.00 93 1016.5
20171021031820 48 225 0.0 0.0 0.00 0.00 0.00 93 1016.5
20171021030820 48 180 0.0 0.0 0.00 0.00 0.00 93 1016.5
20171021025820 48 270 0.0 0.0 0.00 0.00 0.00 93 1016.6
20171021024820 48 203 0.0 0.0 0.00 0.00 0.00 93 1016.5
20171021023820 48 0 0.0 0.0 0.00 0.00 0.00 93 1016.6
20171021015820 48 113 0.0 0.0 0.00 0.00 0.00 92 1016.8
20171021010820 48 90 0.0 0.0 0.00 0.00 0.00 92 1016.9
20171021000821 49 68 0.0 0.0 0.00 0.00 0.00 90 1017.1
20171020235820 49 135 0.0 0.0 0.00 0.00 0.00 90 1017.1
20171020233820 50 203 0.0 0.0 0.00 0.00 0.00 90 1016.9
20171020232820 50 180 0.0 0.0 0.00 0.00 0.00 89 1016.9
20171020231820 50 135 0.0 0.0 0.00 0.00 0.00 89 1016.8
20171020230820 50 293 0.0 0.0 0.00 0.00 0.00 89 1016.7